Tracking 30313 objects as of 21-Apr-2025
HD Live streaming from Space Station
objects crossing your sky now

ION SCV-002

Track ION SCV-002 now!
10-day predictions
ION SCV-002 is classified as:


NORAD ID: 47504
Int'l Code: 2021-006CV
Perigee: 464.7 km
Apogee: 483.6 km
Inclination: 97.1 °
Period: 93.9 minutes
Semi major axis: 6845 km
RCS: Unknown
Launch date: January 24, 2021
Source: Italy (IT)
Launch site: AIR FORCE EASTERN TEST RANGE (AFETR)

Uplink (MHz):
Downlink (MHz):
Beacon (MHz):
Mode: 1200bps FSK
Call sign:
Status: Unknown

Your satellite tracking list
Your tracking list is empty




NASA's NSSDC Master Catalog

Two Line Element Set (TLE):
1 47504U 21006CV  25110.96415862  .00012888  00000-0  40601-3 0  9990
2 47504  97.1146 120.7349 0013794 195.0707 165.0127 15.32939415235126
Source of the keplerian elements: AFSPC